YV2355 SVVL-SVVG

Flight info

Callsign YV2355
Flight time 0h 42m
Altitude 10500
Route DCT
Aircraft C208/L-SDC/C

Departure

Time 2026-04-14 02:18
Airport Dr. Antonio Nicolás Briceño Airport (SVVL)

Arrival

Time 2026-04-14 03:00
Airport Juan Pablo Pérez Alfonso Airport (SVVG)
Time Latitude Longitude Altitude Speed Heading
2026-04-14 02:04 9.34056 -70.58603 1884 ft 0 kts 193°
2026-04-14 02:11 9.34053 -70.58604 1884 ft 1 kts 180°
2026-04-14 02:11 9.34026 -70.58582 1881 ft 8 kts 144°
2026-04-14 02:11 9.33990 -70.58549 1887 ft 6 kts 117°
2026-04-14 02:12 9.33974 -70.58500 1882 ft 11 kts 110°
2026-04-14 02:12 9.33915 -70.58486 1893 ft 10 kts 197°
2026-04-14 02:12 9.33845 -70.58508 1898 ft 11 kts 196°
2026-04-14 02:12 9.33775 -70.58530 1907 ft 11 kts 197°
2026-04-14 02:13 9.33698 -70.58554 1916 ft 12 kts 197°
2026-04-14 02:13 9.33606 -70.58582 1923 ft 15 kts 196°
2026-04-14 02:13 9.33494 -70.58616 1930 ft 18 kts 197°
2026-04-14 02:13 9.33383 -70.58651 1940 ft 14 kts 197°
2026-04-14 02:14 9.33291 -70.58680 1947 ft 14 kts 197°
2026-04-14 02:14 9.33218 -70.58708 1952 ft 3 kts 109°
2026-04-14 02:14 9.33229 -70.58699 1952 ft 0 kts 18°
2026-04-14 02:16 9.33301 -70.58676 1947 ft 33 kts 18°
2026-04-14 02:16 9.33670 -70.58562 1919 ft 75 kts 17°
2026-04-14 02:16 9.34244 -70.58383 1925 ft 92 kts 19°
2026-04-14 02:17 9.34848 -70.58196 2067 ft 90 kts 18°
2026-04-14 02:17 9.35436 -70.58015 2195 ft 88 kts 18°
2026-04-14 02:17 9.36022 -70.57829 2323 ft 88 kts 19°
2026-04-14 02:17 9.36652 -70.57623 2364 ft 107 kts 19°
2026-04-14 02:18 9.37413 -70.57400 2483 ft 120 kts 17°
2026-04-14 02:18 9.38253 -70.57135 2628 ft 132 kts 18°
2026-04-14 02:18 9.39144 -70.56854 2778 ft 140 kts 18°
2026-04-14 02:18 9.40090 -70.56562 2984 ft 140 kts 18°
2026-04-14 02:19 9.41005 -70.56284 3239 ft 135 kts 18°
2026-04-14 02:19 9.41892 -70.56042 3479 ft 131 kts
2026-04-14 02:19 9.42765 -70.56217 3718 ft 129 kts 334°
2026-04-14 02:19 9.43449 -70.56811 3960 ft 131 kts 316°
2026-04-14 02:20 9.44090 -70.57453 4206 ft 128 kts 318°
2026-04-14 02:20 9.44725 -70.58084 4449 ft 129 kts 317°
2026-04-14 02:20 9.45346 -70.58760 4661 ft 134 kts 301°
2026-04-14 02:20 9.45583 -70.59656 4883 ft 132 kts 275°
2026-04-14 02:21 9.45588 -70.60582 5105 ft 132 kts 263°
2026-04-14 02:21 9.45418 -70.61489 5335 ft 130 kts 257°
2026-04-14 02:21 9.45097 -70.62345 5543 ft 130 kts 246°
2026-04-14 02:21 9.44699 -70.63172 5742 ft 131 kts 243°
2026-04-14 02:22 9.44289 -70.63992 5939 ft 131 kts 243°
2026-04-14 02:22 9.43876 -70.64817 6139 ft 131 kts 243°
2026-04-14 02:22 9.43462 -70.65645 6337 ft 132 kts 243°
2026-04-14 02:22 9.43024 -70.66466 6515 ft 133 kts 241°
2026-04-14 02:23 9.42577 -70.67291 6691 ft 134 kts 241°
2026-04-14 02:23 9.42139 -70.68114 6870 ft 134 kts 241°
2026-04-14 02:23 9.41694 -70.68948 7048 ft 135 kts 241°
2026-04-14 02:23 9.41247 -70.69782 7226 ft 135 kts 240°
2026-04-14 02:24 9.40787 -70.70609 7398 ft 135 kts 240°
2026-04-14 02:24 9.40321 -70.71445 7552 ft 138 kts 240°
2026-04-14 02:24 9.39848 -70.72308 7680 ft 142 kts 240°
2026-04-14 02:24 9.39367 -70.73194 7814 ft 144 kts 240°
2026-04-14 02:25 9.38879 -70.74090 7974 ft 147 kts 240°
2026-04-14 02:25 9.38385 -70.74993 8131 ft 146 kts 240°
2026-04-14 02:25 9.37895 -70.75889 8287 ft 145 kts 240°
2026-04-14 02:25 9.37406 -70.76785 8436 ft 145 kts 240°
2026-04-14 02:26 9.36914 -70.77681 8578 ft 146 kts 240°
2026-04-14 02:26 9.36426 -70.78582 8731 ft 146 kts 240°
2026-04-14 02:26 9.35940 -70.79483 8877 ft 146 kts 240°
2026-04-14 02:26 9.35458 -70.80379 9014 ft 148 kts 240°
2026-04-14 02:27 9.34962 -70.81297 9131 ft 149 kts 240°
2026-04-14 02:27 9.34464 -70.82221 9257 ft 150 kts 241°
2026-04-14 02:27 9.33962 -70.83147 9389 ft 150 kts 240°
2026-04-14 02:27 9.33451 -70.84080 9516 ft 152 kts 240°
2026-04-14 02:28 9.32939 -70.85020 9639 ft 153 kts 240°
2026-04-14 02:28 9.32421 -70.85962 9766 ft 152 kts 240°
2026-04-14 02:28 9.31894 -70.86894 9887 ft 153 kts 239°
2026-04-14 02:28 9.31376 -70.87833 10021 ft 152 kts 245°
2026-04-14 02:29 9.30823 -70.88740 10136 ft 152 kts 231°
2026-04-14 02:29 9.30139 -70.89561 10258 ft 152 kts 229°
2026-04-14 02:29 9.29444 -70.90371 10381 ft 152 kts 229°
2026-04-14 02:29 9.28743 -70.91180 10494 ft 154 kts 229°
2026-04-14 02:30 9.28034 -70.92004 10499 ft 161 kts 229°
2026-04-14 02:30 9.27288 -70.92873 10511 ft 165 kts 229°
2026-04-14 02:30 9.26523 -70.93758 10509 ft 168 kts 229°
2026-04-14 02:30 9.25747 -70.94651 10509 ft 170 kts 229°
2026-04-14 02:31 9.24965 -70.95551 10509 ft 170 kts 229°
2026-04-14 02:31 9.24184 -70.96454 10513 ft 171 kts 229°
2026-04-14 02:31 9.23401 -70.97358 10517 ft 171 kts 229°
2026-04-14 02:31 9.22612 -70.98266 10506 ft 172 kts 229°
2026-04-14 02:32 9.21822 -70.99177 10507 ft 172 kts 229°
2026-04-14 02:32 9.21036 -71.00086 10507 ft 171 kts 229°
2026-04-14 02:32 9.20249 -71.00989 10506 ft 171 kts 229°
2026-04-14 02:32 9.19466 -71.01890 10505 ft 170 kts 229°
2026-04-14 02:33 9.18672 -71.02785 10499 ft 171 kts 228°
2026-04-14 02:33 9.17886 -71.03689 10499 ft 171 kts 229°
2026-04-14 02:33 9.17113 -71.04582 10499 ft 171 kts 229°
2026-04-14 02:34 9.15548 -71.06386 10497 ft 170 kts 229°
2026-04-14 02:34 9.14767 -71.07285 10499 ft 170 kts 229°
2026-04-14 02:34 9.13990 -71.08180 10505 ft 169 kts 229°
2026-04-14 02:34 9.13212 -71.09077 10505 ft 170 kts 229°
2026-04-14 02:35 9.12431 -71.09975 10502 ft 170 kts 229°
2026-04-14 02:35 9.11652 -71.10874 10500 ft 169 kts 229°
2026-04-14 02:35 9.10875 -71.11767 10496 ft 168 kts 229°
2026-04-14 02:35 9.10103 -71.12655 10494 ft 168 kts 229°
2026-04-14 02:36 9.09334 -71.13541 10491 ft 167 kts 229°
2026-04-14 02:36 9.08564 -71.14427 10495 ft 167 kts 229°
2026-04-14 02:36 9.07798 -71.15311 10498 ft 167 kts 229°
2026-04-14 02:36 9.07031 -71.16193 10498 ft 167 kts 229°
2026-04-14 02:37 9.06272 -71.17065 10492 ft 167 kts 229°
2026-04-14 02:37 9.05506 -71.17948 10496 ft 166 kts 229°
2026-04-14 02:37 9.04741 -71.18828 10497 ft 166 kts 229°
2026-04-14 02:37 9.03978 -71.19704 10497 ft 166 kts 229°
2026-04-14 02:38 9.03213 -71.20585 10491 ft 167 kts 229°
2026-04-14 02:38 9.02446 -71.21468 10490 ft 167 kts 229°
2026-04-14 02:38 9.01681 -71.22349 10492 ft 167 kts 229°
2026-04-14 02:38 9.00915 -71.23230 10493 ft 166 kts 229°
2026-04-14 02:39 9.00150 -71.24110 10490 ft 167 kts 229°
2026-04-14 02:39 8.99386 -71.24989 10495 ft 166 kts 229°
2026-04-14 02:39 8.98624 -71.25865 10496 ft 166 kts 229°
2026-04-14 02:39 8.97860 -71.26743 10497 ft 166 kts 229°
2026-04-14 02:40 8.97097 -71.27620 10499 ft 166 kts 229°
2026-04-14 02:40 8.96330 -71.28501 10499 ft 167 kts 229°
2026-04-14 02:40 8.95564 -71.29382 10500 ft 167 kts 229°
2026-04-14 02:40 8.94801 -71.30261 10501 ft 166 kts 229°
2026-04-14 02:41 8.94047 -71.31126 10500 ft 166 kts 229°
2026-04-14 02:41 8.93286 -71.32003 10503 ft 165 kts 229°
2026-04-14 02:41 8.92527 -71.32874 10504 ft 165 kts 229°
2026-04-14 02:41 8.91769 -71.33746 10505 ft 165 kts 229°
2026-04-14 02:42 8.91012 -71.34616 10501 ft 165 kts 229°
2026-04-14 02:42 8.90253 -71.35488 10502 ft 165 kts 229°
2026-04-14 02:42 8.89492 -71.36363 10506 ft 166 kts 229°
2026-04-14 02:42 8.88731 -71.37239 10509 ft 166 kts 229°
2026-04-14 02:43 8.87968 -71.38114 10507 ft 166 kts 229°
2026-04-14 02:43 8.87206 -71.38989 10503 ft 166 kts 229°
2026-04-14 02:43 8.86444 -71.39865 10503 ft 166 kts 229°
2026-04-14 02:43 8.85683 -71.40739 10504 ft 166 kts 229°
2026-04-14 02:44 8.84920 -71.41615 10503 ft 168 kts 229°
2026-04-14 02:44 8.84153 -71.42501 10510 ft 167 kts 230°
2026-04-14 02:44 8.83379 -71.43384 10512 ft 169 kts 229°
2026-04-14 02:44 8.82610 -71.44268 10514 ft 171 kts 229°
2026-04-14 02:45 8.81821 -71.45168 10512 ft 170 kts 229°
2026-04-14 02:45 8.81041 -71.46066 10512 ft 171 kts 229°
2026-04-14 02:45 8.80263 -71.46969 10508 ft 169 kts 230°
2026-04-14 02:45 8.79594 -71.47959 10438 ft 173 kts 240°
2026-04-14 02:46 8.78987 -71.49035 10258 ft 176 kts 240°
2026-04-14 02:46 8.78373 -71.50110 10085 ft 176 kts 240°
2026-04-14 02:46 8.77781 -71.51191 9911 ft 173 kts 243°
2026-04-14 02:46 8.77222 -71.52275 9737 ft 174 kts 242°
2026-04-14 02:47 8.76640 -71.53358 9559 ft 177 kts 242°
2026-04-14 02:47 8.76061 -71.54449 9387 ft 176 kts 241°
2026-04-14 02:47 8.75488 -71.55540 9213 ft 176 kts 242°
2026-04-14 02:47 8.74942 -71.56636 9037 ft 180 kts 249°
2026-04-14 02:48 8.74624 -71.57862 8865 ft 181 kts 257°
2026-04-14 02:48 8.74324 -71.59117 8698 ft 187 kts 255°
2026-04-14 02:48 8.73946 -71.60367 8526 ft 184 kts 252°
2026-04-14 02:48 8.73564 -71.61597 8353 ft 183 kts 252°
2026-04-14 02:49 8.73200 -71.62823 8174 ft 183 kts 253°
2026-04-14 02:49 8.72833 -71.64053 8003 ft 183 kts 253°
2026-04-14 02:49 8.72466 -71.65280 7823 ft 181 kts 252°
2026-04-14 02:49 8.72097 -71.66495 7652 ft 184 kts 252°
2026-04-14 02:50 8.71716 -71.67749 7477 ft 191 kts 253°
2026-04-14 02:50 8.71335 -71.69032 7311 ft 193 kts 253°
2026-04-14 02:50 8.70953 -71.70321 7138 ft 190 kts 253°
2026-04-14 02:50 8.70565 -71.71597 6960 ft 190 kts 252°
2026-04-14 02:51 8.70172 -71.72882 6785 ft 192 kts 252°
2026-04-14 02:51 8.69785 -71.74152 6610 ft 191 kts 253°
2026-04-14 02:51 8.69408 -71.75428 6410 ft 188 kts 253°
2026-04-14 02:51 8.69026 -71.76706 6213 ft 192 kts 252°
2026-04-14 02:52 8.68637 -71.77978 6011 ft 187 kts 253°
2026-04-14 02:52 8.68270 -71.79209 5804 ft 179 kts 253°
2026-04-14 02:52 8.67912 -71.80392 5602 ft 174 kts 253°
2026-04-14 02:52 8.67676 -71.81175 5454 ft 171 kts 253°
2026-04-14 02:53 8.67331 -71.82318 5247 ft 169 kts 253°
2026-04-14 02:53 8.66994 -71.83437 5042 ft 168 kts 253°
2026-04-14 02:53 8.66654 -71.84560 4841 ft 166 kts 253°
2026-04-14 02:53 8.66086 -71.85563 4598 ft 165 kts 225°
2026-04-14 02:54 8.65144 -71.86190 4339 ft 162 kts 200°
2026-04-14 02:54 8.64045 -71.86343 4103 ft 159 kts 174°
2026-04-14 02:54 8.63006 -71.86021 3874 ft 156 kts 149°
2026-04-14 02:54 8.62214 -71.85309 3608 ft 151 kts 124°
2026-04-14 02:55 8.61609 -71.84456 3355 ft 148 kts 124°
2026-04-14 02:55 8.60991 -71.83622 3106 ft 148 kts 124°
2026-04-14 02:55 8.60435 -71.82750 2851 ft 147 kts 108°
2026-04-14 02:55 8.60350 -71.81765 2695 ft 137 kts 79°
2026-04-14 02:56 8.60495 -71.80865 2611 ft 127 kts 79°
2026-04-14 02:56 8.60617 -71.79995 2451 ft 127 kts 79°
2026-04-14 02:56 8.60741 -71.79107 2284 ft 128 kts 79°
2026-04-14 02:56 8.60867 -71.78216 2113 ft 128 kts 79°
2026-04-14 02:57 8.60994 -71.77324 1943 ft 128 kts 80°
2026-04-14 02:57 8.61119 -71.76436 1777 ft 128 kts 80°
2026-04-14 02:57 8.61245 -71.75545 1606 ft 128 kts 81°
2026-04-14 02:57 8.61372 -71.74658 1439 ft 127 kts 81°
2026-04-14 02:58 8.61497 -71.73774 1272 ft 126 kts 81°
2026-04-14 02:58 8.61622 -71.72899 1115 ft 122 kts 80°
2026-04-14 02:58 8.61734 -71.72120 959 ft 108 kts 80°
2026-04-14 02:58 8.61839 -71.71392 815 ft 102 kts 80°
2026-04-14 02:59 8.61939 -71.70694 685 ft 99 kts 80°
2026-04-14 02:59 8.62035 -71.70014 557 ft 97 kts 80°
2026-04-14 02:59 8.62126 -71.69351 467 ft 93 kts 81°
2026-04-14 02:59 8.62215 -71.68703 360 ft 92 kts 81°
2026-04-14 03:00 8.62295 -71.68113 282 ft 77 kts 81°
2026-04-14 03:00 8.62364 -71.67628 277 ft 64 kts 82°
2026-04-14 03:00 8.62423 -71.67210 278 ft 57 kts 82°
2026-04-14 03:00 8.62475 -71.66835 279 ft 48 kts 82°
2026-04-14 03:01 8.62511 -71.66581 278 ft 29 kts 83°
2026-04-14 03:01 8.62535 -71.66410 279 ft 18 kts 83°
2026-04-14 03:01 8.62506 -71.66342 279 ft 7 kts 153°
2026-04-14 03:01 8.62467 -71.66334 279 ft 9 kts 172°
2026-04-14 03:02 8.62402 -71.66323 278 ft 9 kts 161°
2026-04-14 03:02 8.62384 -71.66273 278 ft 11 kts 134°
2026-04-14 03:02 8.62340 -71.66264 278 ft 2 kts 172°
2026-04-14 03:02 8.62337 -71.66264 278 ft 0 kts 173°